Weather History for Litchfield, MN

Change the Weather History Date:

Tuesday, May 20, 2014

  Actual Average Record
Temperature  
Mean Temperature 66 °F -  
Max Temperature 77 °F 74 °F 93 °F (1970)
Min Temperature 55 °F 46 °F 6 °F (1998)
Cooling Degree Days 1    
Growing Degree Days 16 (Base 50)    
Moisture  
Dew Point 57 °F    
Average Humidity 80    
Maximum Humidity 100    
Minimum Humidity 41    
Precipitation  
Precipitation 0.00 in - - ()
Sea Level Pressure  
Sea Level Pressure 29.83 in    
Wind  
Wind Speed 1 mph (WSW)    
Max Wind Speed 12 mph    
Max Gust Speed -    
Visibility 6 miles    
Events Fog , Rain    
Averages and records for this station are not official NWS values.
T = Trace of Precipitation, MM = Missing Value Source: NWS Daily Summary

Daily Weather History Graph

Daily Weather History Graph

Search for Another Location

Airport:

Trip Planner

Search our weather history database for the weather conditions in past years. The results will help you decide how hot, cold, wet, or windy it might be!

Date:

Astronomy

May. 20, 2014 Rise Set
Actual Time 5:43 AM CDT 8:46 PM CDT
Civil Twilight 5:08 AM CDT 9:21 PM CDT
Nautical Twilight 4:23 AM CDT 10:06 PM CDT
Astronomical Twilight 3:29 AM CDT 11:00 PM CDT
Moon 1:10 AM CDT (5/20) 11:58 AM CDT (5/20)
Length of Visible Light 16h 13m
Length of Day
15h 02m
Waning Gibbous, 60% of the Moon is Illuminated
May 20
Waning Gibbous
May 21
Last Quarter
May 28
New
Jun 5
First Quarter
Jun 12
Full

Hourly Weather History & Observations

Time (CDT) Temp. Dew Point Humidity Pressure Visibility Wind Dir Wind Speed Gust Speed Precip Events Conditions
12:13 AM 55.4 °F 55.4 °F 100% 29.76 in 3.0 mi SSE 4.6 mph - N/A   Overcast
12:32 AM 55.4 °F 55.4 °F 100% 29.76 in 3.0 mi Calm Calm - N/A   Overcast
1:13 AM 55.4 °F 55.4 °F 100% 29.76 in 2.5 mi Calm Calm - N/A   Mostly Cloudy
1:32 AM 55.4 °F 55.4 °F 100% 29.76 in 2.5 mi Calm Calm - N/A   Mostly Cloudy
1:53 AM 55.4 °F 55.4 °F 100% 29.76 in 2.0 mi Calm Calm - N/A   Overcast
2:13 AM 55.4 °F 55.4 °F 100% 29.76 in 1.8 mi Calm Calm - N/A   Overcast
2:32 AM 55.4 °F 55.4 °F 100% 29.77 in 1.8 mi Calm Calm - N/A   Overcast
2:53 AM 55.4 °F 55.4 °F 100% 29.76 in 1.2 mi Calm Calm - N/A   Overcast
3:13 AM 55.4 °F 55.4 °F 100% 29.77 in 0.5 mi Calm Calm - N/A Fog Fog
3:32 AM 55.4 °F 55.4 °F 100% 29.76 in 0.2 mi Calm Calm - N/A Fog Fog
3:53 AM 55.4 °F 55.4 °F 100% 29.76 in 0.2 mi Calm Calm - N/A Fog Fog
4:13 AM 55.4 °F 55.4 °F 100% 29.77 in 0.2 mi Calm Calm - N/A Fog Fog
4:32 AM 55.4 °F 55.4 °F 100% 29.77 in 0.2 mi Calm Calm - N/A Fog Fog
4:53 AM 55.4 °F 55.4 °F 100% 29.77 in 0.2 mi Calm Calm - N/A Fog Fog
5:13 AM 55.4 °F 55.4 °F 100% 29.77 in 0.2 mi Calm Calm - N/A Fog Fog
5:32 AM 55.4 °F 55.4 °F 100% 29.77 in 0.2 mi Calm Calm - N/A Fog Fog
5:53 AM 55.4 °F 55.4 °F 100% 29.78 in 0.2 mi Calm Calm - N/A   Light Drizzle
6:13 AM 55.4 °F 55.4 °F 100% 29.78 in 0.2 mi Calm Calm - N/A   Light Drizzle
6:33 AM 55.4 °F 55.4 °F 100% 29.80 in 0.2 mi Calm Calm - N/A   Drizzle
6:52 AM 55.4 °F 55.4 °F 100% 29.80 in 0.2 mi Calm Calm - N/A   Light Drizzle
7:13 AM 55.4 °F 55.4 °F 100% 29.82 in 0.2 mi Calm Calm - N/A   Light Drizzle
7:33 AM 55.4 °F 55.4 °F 100% 29.82 in 0.2 mi Calm Calm - N/A   Light Drizzle
7:52 AM 55.4 °F 55.4 °F 100% 29.82 in 0.2 mi Calm Calm - N/A   Light Drizzle
8:13 AM 55.4 °F 55.4 °F 100% 29.83 in 0.2 mi ENE 3.5 mph - N/A   Light Drizzle
8:33 AM 55.4 °F 55.4 °F 100% 29.84 in 0.2 mi Calm Calm - N/A   Light Drizzle
8:52 AM 55.4 °F 55.4 °F 100% 29.85 in 0.5 mi Calm Calm - N/A Fog Fog
9:13 AM 57.2 °F 57.2 °F 100% 29.86 in 1.0 mi Calm Calm - N/A   Overcast
9:32 AM 57.2 °F 57.2 °F 100% 29.87 in 1.5 mi Calm Calm - N/A   Overcast
9:53 AM 57.2 °F 57.2 °F 100% 29.87 in 2.5 mi Calm Calm - N/A   Overcast
10:12 AM 59.0 °F 59.0 °F 100% 29.87 in 3.0 mi Calm Calm - N/A   Overcast
10:33 AM 59.0 °F 59.0 °F 100% 29.88 in 4.0 mi Calm Calm - N/A   Overcast
10:53 AM 60.8 °F 60.8 °F 100% 29.88 in 5.0 mi Calm Calm - N/A   Scattered Clouds
11:13 AM 64.4 °F 60.8 °F 88% 29.88 in 7.0 mi Calm Calm - N/A   Clear
11:53 AM 66.2 °F 60.8 °F 83% 29.89 in 10.0 mi Calm Calm - N/A   Clear
12:13 PM 66.2 °F 60.8 °F 83% 29.89 in 10.0 mi Calm Calm - N/A   Clear
12:33 PM 69.8 °F 60.8 °F 73% 29.88 in 10.0 mi Calm Calm - N/A   Clear
12:53 PM 71.6 °F 60.8 °F 69% 29.88 in 10.0 mi Calm Calm - N/A   Clear
1:13 PM 71.6 °F 60.8 °F 69% 29.88 in 10.0 mi Calm Calm - N/A   Clear
1:33 PM 71.6 °F 62.6 °F 73% 29.88 in 10.0 mi SSE 4.6 mph - N/A   Clear
1:53 PM 71.6 °F 60.8 °F 69% 29.88 in 10.0 mi SSE 4.6 mph - N/A   Clear
2:13 PM 73.4 °F 60.8 °F 65% 29.87 in 10.0 mi Calm Calm - N/A   Clear
2:33 PM 73.4 °F 60.8 °F 65% 29.86 in 10.0 mi Calm Calm - N/A   Clear
2:53 PM 73.4 °F 57.2 °F 57% 29.86 in 10.0 mi Calm Calm - N/A   Clear
3:13 PM 75.2 °F 55.4 °F 50% 29.85 in 10.0 mi Calm Calm - N/A   Clear
3:32 PM 75.2 °F 55.4 °F 50% 29.85 in 10.0 mi NW 4.6 mph - N/A   Clear
3:53 PM 75.2 °F 55.4 °F 50% 29.85 in 10.0 mi Calm Calm - N/A   Clear
4:13 PM 77.0 °F 53.6 °F 44% 29.85 in 10.0 mi West 5.8 mph - N/A   Scattered Clouds
4:53 PM 75.2 °F 51.8 °F 44% 29.85 in 10.0 mi Calm Calm - N/A   Clear
5:12 PM 77.0 °F 53.6 °F 44% 29.85 in 10.0 mi Calm Calm - N/A   Clear
5:33 PM 77.0 °F 53.6 °F 44% 29.85 in 10.0 mi Calm Calm - N/A   Clear
5:52 PM 77.0 °F 51.8 °F 41% 29.85 in 10.0 mi Calm Calm - N/A   Scattered Clouds
6:13 PM 77.0 °F 53.6 °F 44% 29.85 in 10.0 mi South 3.5 mph - N/A   Clear
6:33 PM 77.0 °F 53.6 °F 44% 29.84 in 10.0 mi SW 3.5 mph - N/A   Scattered Clouds
6:52 PM 75.2 °F 53.6 °F 47% 29.84 in 10.0 mi Calm Calm - N/A   Clear
7:13 PM 75.2 °F 53.6 °F 47% 29.83 in 10.0 mi Calm Calm - N/A   Clear
7:33 PM 75.2 °F 55.4 °F 50% 29.83 in 10.0 mi Calm Calm - N/A   Clear
7:52 PM 73.4 °F 55.4 °F 53% 29.84 in 10.0 mi Calm Calm - N/A   Clear
8:13 PM 73.4 °F 55.4 °F 53% 29.84 in 10.0 mi Calm Calm - N/A   Clear
8:33 PM 71.6 °F 55.4 °F 57% 29.84 in 10.0 mi Calm Calm - N/A   Clear
8:52 PM 69.8 °F 57.2 °F 64% 29.85 in 10.0 mi Calm Calm - N/A   Clear
9:13 PM 69.8 °F 60.8 °F 73% 29.85 in 10.0 mi Calm Calm - N/A   Clear
9:33 PM 68.0 °F 62.6 °F 83% 29.85 in 10.0 mi Calm Calm - N/A Rain Light Rain
9:52 PM 66.2 °F 60.8 °F 83% 29.85 in 10.0 mi Calm Calm - N/A   Clear
10:13 PM 66.2 °F 60.8 °F 83% 29.85 in 10.0 mi SSW 3.5 mph - N/A   Scattered Clouds
10:33 PM 66.2 °F 60.8 °F 83% 29.86 in 10.0 mi Calm Calm - N/A   Clear
10:52 PM 66.2 °F 60.8 °F 83% 29.87 in 10.0 mi West 8.1 mph - N/A   Unknown
11:13 PM 66.2 °F 55.4 °F 68% 29.88 in 10.0 mi WNW 11.5 mph - N/A   Unknown
11:33 PM 66.2 °F 53.6 °F 64% 29.89 in 10.0 mi NW 6.9 mph - N/A   Clear
11:52 PM 64.4 °F 53.6 °F 68% 29.89 in 10.0 mi NW 5.8 mph - N/A   Clear